Weather in Zvezdochka

Russia / Sakha (Yakutia) Republic     60°29′18″N   137°39′04″E
temp.,
°C
wind,
m/s
gust,
m/s
humid.,
%
clouds,
%
prec.,
mm/h
press.,
hPa
HPBL,
m
8 march, mon
mon800:00−37nne119969 0.0 101719
03:00−37ne119858 0.0 101619
06:00−36nne119636 0.0 101519
09:00−29nnw119018 0.0 1012108
12:00−22wnw108325 0.0 1009240
15:00−20wsw008161 0.0 1006203
18:00−23ne019090 0.0 100720
21:00−23ssw009688 0.0 100720
9 march, tue
tue900:00−23ene009999 0.1 100720
03:00−25nne0010096 0.1 100720
06:00−24n1110097 0.1 100820
09:00−20nnw119593 0.1 1009136
12:00−15nw118989 0.0 1008308
15:00−13wnw128795 0.1 1008471
18:00−19nw119497 0.0 101120
21:00−21n009991 0.1 101420
10 march, wed
wed1000:00−23se0010091 0.0 101520
03:00−23e0010096 0.1 101520
06:00−25e1110096 0.0 101620
09:00−20se019683 0.0 1014115
12:00−14s138576 0.0 1011421
15:00−13sse238488 0.0 1010442
18:00−17sse2291100 0.0 101031
21:00−17se1197100 0.3 101131
11 march, thu
thu1100:00−17s1197100 0.3 101220
03:00−19sw1199100 0.6 101420
06:00−22s1110099 0.1 101620
09:00−18s119496 0.1 1016178
12:00−16w3581100 0.1 10151070
15:00−17wnw4684100 0.2 10141171
18:00−21nnw1297100 0.1 101628
21:00−22nw1110098 0.1 101720
12 march, fri
fri1200:00−23nw11100100 0.1 101720
03:00−23nw1199100 0.1 101720
06:00−26nnw1110097 0.0 101819
09:00−22nnw119695 0.1 1017163
12:00−17wnw0185100 0.0 1013481
15:00−16sw018296 0.0 1011500
18:00−22ese119370 0.0 101020
21:00−21e119485 0.1 100920